STARLINK-3861, 52503

Orbit data source: Space-Track

STARLINK-3861, 52503 is a payload satellite owned by SpaceX/Seattle (US) in LEO that was launched on Fri, 06 May 2022 UTC via an FALCON 9 launch vehicle from the Air Force Eastern Test Range (AFETR). Payload-class satellites include a variety of spacecraft equipped with specific instruments for various scientific and technological missions. These include communications satellites like Starlink; space stations such as the ISS; scientific satellites like the Hubble; Earth observation satellites from companies like Planet Labs, Umbra, and HawkEye 360; GPS; miniature CubeSats for education and research; and military/defense satellites.

Loading next visibility...
Identifier
52503, 2022-049BE
Orbit
LEO
Country
Flag of USUS
Related business
Manufacturer
SpaceX/Seattle
Mission
Operational Commercial Communications
Bus & Motor
STARLINK, Unknown motor
Mass
297 kg wet, ~220 kg dry
Launch date (UTC)
2022-05-06 (4 years ago)
Launch vehicle
FALCON 9
Launch site
Air Force Eastern Test Range (AFETR)
Object type
Payload
Rocket body
Debris
Shape & HBR
Box + 1 Pan, 10.1 m
Radar Cross Section
13.562 m², Large (>1 m²)

Expand to show TLE details & history
Last TLE update: 22 hours ago

TLE from 22 hours ago
0 STARLINK-3861
1 52503U 22049BE  25346.66787333 -.00001528  00000-0 -77968-4 0  9994
2 52503  53.2181  69.6602 0001213  99.9435 260.1694 15.08824197199396
Epoch: 2025-12-12T16:01Z
TLE epoch observation values (Epoch: 2025-12-12T16:01:44.255Z)
Latitude
-0.00004°
Longitude
107.61957°
Altitude
540.833 km
Speed
7.593 km/s
True Right ascension
04h 38m 38s
True Declination
0° 00' 00"
Sunlit
Object was in full shadow at epoch
Visualization orbit readout
Latitude
Unknown
Longitude
Unknown
Altitude
Unknown
Speed
Unknown
Apparent Right ascension
Unknown
Apparent Declination
Unknown
Sunlit
N/A
Visualization observer readout
Local Sidereal Time
12:53:36
Azimuth
Unknown
Elevation
Unknown
Doppler factor
Unknown
Orbital elements
Apogee altitude
540.876 km
Perigee altitude
539.197 km
Semi-major axis
6,918.174 km
Eccentricity
0.00012
Inclination
53.2181°
RAAN
69.6602°
Arg. of periapsis
99.9435°
True anomaly
260.1557°
Mean anomaly
260.1694°
Eccentric anomaly
260.16255°
Mean motion
3.77186 °/min
Orbital period
95.44 mins
BSTAR
-0.000077968
Loading maneuver chart data...
Computing Atmospheric mass density...
Loading historical data...
Loading historical data...
Loading historical data...
Loading historical data...
Loading historical data...
Loading historical data...
Loading historical data...

Documentation

Showing up to 5 results
|